CLASSIFICA

CORRIGUBBIO 2015

CORSA SU STRADA 14900 m

13/09/2015 GUBBIO (PG)

DIVISIONI:
15KM     CLASSIFICA:   ASSOLUTA    F     M    
CATEGORIE:   TUTTE    |   SF   |   SF35   |   SF40   |   SF45   |   SF50   |   SF55   |   SF65   |   SM   |   SM35   |   SM40   |   SM45   |   SM50   |   SM55   |   SM60   |   SM65  
FILTRO:
  Atleta      Team        Pulisci       Atleti classificati 15KM: 291  

Cliccare sulle colonne per cambiare ordinamento
Pos. M/F Cat. P.Cat. Pett Naz Atleta Squadra Tempo Distacco in tempo Distacco in metri Min/Km
11SM35031TIBERI GIORGIOA.S.D. PODISTICA AVIS FABRIANO00:53:21 00:00:00 0 03:35
22SM400149SANTINI STEFANOATL. URBANIA00:53:29 00:00:08 37 03:35
33SM350304CHIAPPINI DANIELEPOD. CARSULAE TR00:53:50 00:00:29 133 03:37
44SM1320AMETRANO ALESSIOPOD. CORCIANO00:54:17 00:00:56 256 03:39
55SM5514GIORGETTI CLAUDIOAMATORI PODISTICA TERNI00:54:38 00:01:17 350 03:40
66SM351286COLETTI ALESSIOPOD. AVIS DERUTA00:54:49 00:01:28 398 03:41
77SM40118FERRETTI DIEGOA.S.D. PODISTICA AVIS FABRIANO00:55:18 00:01:57 525 03:43
88SM352267TOMMASINI ANDREAIDEE SPORT TERRITORIO A.S.D.00:55:42 00:02:21 628 03:44
99SM2358MAFFEI GIACOMOASD ATLETICA URBANIA00:56:04 00:02:43 721 03:46
1010SM3236MERLUZZO MATTEOG.S. FILIPPIDE C. D. LAGO00:56:18 00:02:57 780 03:47
1111SM4299RICCIARELLI ROCCOPOD. AVIS DERUTA00:56:35 00:03:14 851 03:48
1212SM560RUSSO NICOLASATHLETIC TERNI00:56:38 00:03:17 863 03:48
1313SM501311MERCANTINI FRANCOPOD. CARSULAE TR00:56:38 00:03:17 863 03:48
1414SM451175FRANCESCHELLI LUIGIATLETICA AVIS PERUGIA00:56:41 00:03:20 876 03:48
1515SM452133PROCACCI MARIOATL. TAINO00:56:50 00:03:29 913 03:49
1616SM50265FIORUCCI MARCOATL. CAPANNE PG00:57:10 00:03:49 994 03:50
1717SM453370PIRILLI ANDREADREAM RUNNERS PG00:57:12 00:03:51 1.002 03:50
1818SM6130PANFILI MARCOATL. TAINO00:57:58 00:04:37 1.186 03:53
1919SM353364BRILLI FABRIZIOG.S. BANCARI ROMANI00:58:23 00:05:02 1.284 03:55
2020SM454235CINA STEFANOG.S. BANCARI ROMANI00:58:23 00:05:02 1.284 03:55
2121SM455147IONI GIAMPAOLOATL. URBANIA00:58:27 00:05:06 1.300 03:55
2222SM456211SPACCI FABRIZIOCDP-T&RB GROUP-AREA SISTEMA00:58:35 00:05:14 1.331 03:56
2323SM7275URBANI LUCALIBERTAS ORVIETO00:58:40 00:05:19 1.350 03:56
2424SM402144ACERO FILIPPOATL. URBANIA00:58:46 00:05:25 1.373 03:57
2525SM457103TACCUCCI MAURIZIOATL. IL COLLE PERUGIA00:59:05 00:05:44 1.445 03:58
2626SM50340BAZZUCCHI MAUROASPA BASTIA00:59:08 00:05:47 1.457 03:58
2727SM3543PAONE EMILIOMARATHON CLUB C. DI CASTELLO00:59:12 00:05:51 1.472 03:58
2828SM45868BERETTONI CLAUDIOATL. FABRIANO00:59:16 00:05:55 1.487 03:59
2929SM552190D'AMICO GIOVANNICDP-T&RB GROUP-AREA SISTEMA00:59:23 00:06:02 1.513 03:59
3030SM459289FAUSTINO SALVATOREPOD. AVIS DERUTA00:59:24 00:06:03 1.517 03:59
3131SM504197GIANNONI CLAUDIOCDP-T&RB GROUP-AREA SISTEMA00:59:25 00:06:04 1.521 03:59
3232SM4510191DI STEFANO SILVIOCDP-T&RB GROUP-AREA SISTEMA00:59:25 00:06:04 1.521 03:59
3333SM505273BARCAROLI ALESSANDROLIBERTAS ORVIETO00:59:34 00:06:13 1.555 04:00
3434SM355150SPADONI RAFFAELEATL. URBANIA00:59:35 00:06:14 1.558 04:00
3535SM553176MATTIOLI CLAUDIOATLETICA AVIS PERUGIA00:59:39 00:06:18 1.573 04:00
3636SM8396ANTONGIOVANNI MATTEOFIRENZE TRIATHLON00:59:45 00:06:24 1.595 04:01
3737SM356122FAZI FABIOATL. TAINO00:59:50 00:06:29 1.614 04:01
3838SM451155ZANINO GIOVANNI ALESSIOASPA BASTIA00:59:53 00:06:32 1.625 04:01
3939SM506164PALLOTTA ROBERTOATL. WINNER FOLIGNO01:00:02 00:06:41 1.658 04:02
4040SM507208POLTICCHIA ROBERTOCDP-T&RB GROUP-AREA SISTEMA01:00:08 00:06:47 1.680 04:02
4141SM4512162BENDINI MARIOATL. WINNER FOLIGNO01:00:10 00:06:49 1.688 04:02
4242SM9310LORI OMARPOD. CARSULAE TR01:00:45 00:07:24 1.814 04:05
4343SM403368PISANI EMILIOATL. CAPANNE PG01:00:56 00:07:35 1.854 04:05
4444SM601174FANELLI RICCARDOATLETICA AVIS PERUGIA01:00:59 00:07:38 1.865 04:06
4545SM10313PIANTONI MICHELEPOD. CARSULAE TR01:01:18 00:07:57 1.932 04:07
4646SM357264BENDELLI LUCAIDEE SPORT TERRITORIO A.S.D.01:01:27 00:08:06 1.964 04:07
4747SM1161SCALI GIORGIOATLETICA AVIS PERUGIA01:01:33 00:08:12 1.985 04:08
4848SM404199LINCE MIRNOCDP-T&RB GROUP-AREA SISTEMA01:01:37 00:08:16 1.999 04:08
4949SM405155CASTELLANI SIMONEATL. WINNER FOLIGNO01:01:37 00:08:16 1.999 04:08
5050SM358281PETRUZZI PIETROOLYMPIC RUNNERS LAMA01:01:40 00:08:19 2.009 04:08
5151SM451379BENEDETTI STEFANOATL. IL COLLE PERUGIA01:01:47 00:08:26 2.033 04:09
5252SM359124FRATINI DANIELEATL. TAINO01:01:54 00:08:33 2.058 04:09
5353SM508400PIERINI GIUSEPPEMARATHON CLUB C. DI CASTELLO01:01:54 00:08:33 2.058 04:09
5454SM406374GAMBELLA MASSIMOPOD. AVIS FABRIANO AN01:01:56 00:08:35 2.064 04:09
5555SM40744GAILLARDI ALESSIOASPA BASTIA01:01:58 00:08:37 2.071 04:10
5656SM40858VERDUCCI LEONARDOASSISI RUNNERS01:01:58 00:08:37 2.071 04:10
5757SM409131PECCI MARZIOATL. TAINO01:02:04 00:08:43 2.092 04:10
5858SM554182BERTOLINI ADEMAROCDP-T&RB GROUP-AREA SISTEMA01:02:07 00:08:46 2.102 04:10
5959SM651272VIROLI ARALDOG.P. CESENATE01:02:12 00:08:51 2.120 04:11
6060SM602365VENTANNI ONELIOATL. AVIS PERUGIA01:02:15 00:08:54 2.130 04:11
6161SM4010351CECATI GIOVANNIG.S. G. PIERALISI01:02:16 00:08:55 2.133 04:11
6262SM509361IAIANI GIUSEPPEUISP FOLIGNO01:02:23 00:09:02 2.157 04:11
6363SM6035MANGIALASCHE ALFONSOA.S. ATHLON ASI BASTIA PG01:02:28 00:09:07 2.174 04:12
6464SM12359AGOSTINI ROBERTOIDEE SPORT TERRITORIO A.S.D.01:02:35 00:09:14 2.198 04:12
6565SM1334BOSCO AUGUSTO BENEDETTAMATORI POD. TERNI01:02:37 00:09:16 2.205 04:12
6666SM4514307GRIMALDI MASSIMILIANOPOD. CARSULAE TR01:02:43 00:09:22 2.225 04:13
6767SM3510104LA RICCIA ANGELOATL. MONTECASSIANO01:02:46 00:09:25 2.235 04:13
6868SM555172COVARELLI MAUROATLETICA AVIS PERUGIA01:02:47 00:09:26 2.238 04:13
6969SM556345PIGINI ALVAROUISPORT AVIS TODI01:02:49 00:09:28 2.245 04:13
7070SM55767BARONI TIZIANOATL. CSAIN PERUGIA01:02:58 00:09:37 2.275 04:14
7171SM4011161MAZZONI MICHELEATL. WINNER FOLIGNO01:03:03 00:09:42 2.292 04:14
721SF0282SCARSELLI FRANCESCAOLYMPIC RUNNERS LAMA01:03:09 00:09:48 2.312 04:14
7372SM4012315CORICELLO ANTONIOPOD. CORCIANO01:03:31 00:10:10 2.384 04:16
7473SM604350BARCHIESI GIULIANOPOD. VALTENNA01:03:39 00:10:18 2.411 04:16
7574SM3511266SQUITIERI ROSARIO ADOLFOIDEE SPORT TERRITORIO A.S.D.01:03:47 00:10:26 2.437 04:17
7675SM14329PINTUS GIANNIRUNCARD01:03:56 00:10:35 2.466 04:17
772SF400148PIERINI VERONICAATL. URBANIA01:03:56 00:10:35 2.466 04:17
7876SM15306DEMMA FRANCESCOPOD. CARSULAE TR01:04:13 00:10:52 2.521 04:19
7977SM5010145AMATORI ROBERTOATL. URBANIA01:04:14 00:10:53 2.524 04:19
8078SM1657RASPA ALESSANDROASSISI RUNNERS01:04:18 00:10:57 2.537 04:19
8179SM5011127LUPI ANDREAATL. TAINO01:04:24 00:11:03 2.556 04:19
8280SM351215COCCO FERRUCCIOA.S.D. PODISTICA AVIS FABRIANO01:04:34 00:11:13 2.588 04:20
8381SM179BALDUCCI GIANLUCAA.S.D. PODISTICA AVIS FABRIANO01:04:35 00:11:14 2.591 04:20
8482SM501275PETRUCCI VINCENZOATL. FABRIANO01:04:42 00:11:21 2.613 04:21
853SF350363CICCACCI LAURAG.S. BANCARI ROMANI01:04:43 00:11:22 2.616 04:21
8683SM5013102STACCINI CLAUDIOATL. IL COLLE PERUGIA01:04:48 00:11:27 2.632 04:21
8784SM4515163PACCHIA ALESSANDROATL. WINNER FOLIGNO01:04:49 00:11:28 2.635 04:21
8885SM18265PIERI FILIPPOIDEE SPORT TERRITORIO A.S.D.01:04:49 00:11:28 2.635 04:21
8986SM5014263MANSI MARCOHAPPY RUNNER CLUB01:04:57 00:11:36 2.661 04:22
9087SM5015142RONDINI FABRIZIOATL. UMBERTIDE01:04:59 00:11:38 2.667 04:22
9188SM401321MOSCHINI MAUROA.S.D. PODISTICA AVIS FABRIANO01:05:01 00:11:40 2.673 04:22
9289SM605107BARBETTI ALESSANDROATL. SINALUNGA01:05:04 00:11:43 2.683 04:22
9390SM5016305DE ANGELIS LEONARDOPOD. CARSULAE TR01:05:13 00:11:52 2.711 04:23
9491SM4014317FUMANTI MICHELEPOD. CORCIANO01:05:13 00:11:52 2.711 04:23
954SF401109TOMASZUN MONIKAATL. SINALUNGA01:05:17 00:11:56 2.723 04:23
9692SM4015128MATARAZZI MARCOATL. TAINO01:05:19 00:11:58 2.729 04:23
9793SM3513302ZAMPI ROBERTOPOD. AVIS DERUTA01:05:37 00:12:16 2.785 04:24
9894SM65289GUERCINI BRUNOATL. IL COLLE PERUGIA01:05:38 00:12:17 2.788 04:24
9995SM451627SALVATORI GABRIELEA.S.D. PODISTICA AVIS FABRIANO01:05:43 00:12:22 2.803 04:25
10096SM5017354FAGIOLINI FABIOFARTLEK OSTIA01:05:47 00:12:26 2.816 04:25
10197SM3514126LACCHI MASSIMILIANOATL. TAINO01:05:49 00:12:28 2.822 04:25
1025SF402301VICHI KATIUSCIAPOD. AVIS DERUTA01:05:55 00:12:34 2.840 04:25
10398SM5018125GAROFOLI PAOLOATL. TAINO01:06:07 00:12:46 2.877 04:26
10499SM19312PIANTONI LEONARDOPOD. CARSULAE TR01:06:20 00:12:59 2.916 04:27
105100SM351593NOBILINI LUCAATL. IL COLLE PERUGIA01:06:22 00:13:01 2.922 04:27
106101SM401692MORETTI SAMUELEATL. IL COLLE PERUGIA01:06:22 00:13:01 2.922 04:27
107102SM4017171CANCELLONI MARCELLOATLETICA AVIS PERUGIA01:06:26 00:13:05 2.934 04:28
108103SM4018360MEZZOLANI ADRIANOIDEE SPORT TERRITORIO A.S.D.01:06:27 00:13:06 2.937 04:28
109104SM451732TITTARELLI SAUROA.S.D. PODISTICA AVIS FABRIANO01:06:28 00:13:07 2.940 04:28
110105SM5019233SCURIATTI FABIOG.P. AVIS CASTELRAIMONDO01:06:32 00:13:11 2.952 04:28
111106SM5020230MELCHIORRI LUCAG.P. AVIS CASTELRAIMONDO01:06:33 00:13:12 2.955 04:28
112107SM5021218TORTOLINI ENRICOESERCITO CE.SEL.NA FOLIGNO01:06:36 00:13:15 2.964 04:28
113108SM3516335PITARI ALESSIORUNNERS SANGEMINI TR01:06:37 00:13:16 2.967 04:28
114109SM502283CERQUAGLIA MARIOATL. IL COLLE PERUGIA01:06:47 00:13:26 2.997 04:29
115110SM502337GERMINELLI ROBERTOAPD P.FELCINO01:06:49 00:13:28 3.003 04:29
116111SM558356CUCCHIARINI PIERLUIGIOLYMPIC RUNNERS LAMA01:06:50 00:13:29 3.006 04:29
117112SM5024186CIACCIO PIERLUIGICDP-T&RB GROUP-AREA SISTEMA01:06:52 00:13:31 3.011 04:29
118113SM40191GOBBINI SIMONECDP ATLETICA PERUGIA01:06:57 00:13:36 3.026 04:30
119114SM2080CAPORALETTI FRANCESCOATL. IL COLLE PERUGIA01:07:06 00:13:45 3.053 04:30
120115SM5025369PAOLONI PIEROATL. CAPANNE PG01:07:11 00:13:50 3.067 04:31
121116SM55970BUCCHI AMEDEOATL. FABRIANO01:07:29 00:14:08 3.120 04:32
1226SF1214ABBANDONI ELEONORADREAM RUNNERS PG01:07:29 00:14:08 3.120 04:32
123117SM402024RENZI DANIELEA.S.D. PODISTICA AVIS FABRIANO01:07:30 00:14:09 3.123 04:32
124118SM21357NACCARI MATTEOIDEE SPORT TERRITORIO A.S.D.01:07:38 00:14:17 3.146 04:32
125119SM4021355CASELLI EDIBERTOPOL. MONTECCHIO 200001:07:51 00:14:30 3.184 04:33
126120SM402290LOLLINI MANUELATL. IL COLLE PERUGIA01:07:54 00:14:33 3.192 04:33
127121SM3517367PICCHI FEDERICORUNCARD01:07:57 00:14:36 3.201 04:34
128122SM4023192FALASCHI DANIELECDP-T&RB GROUP-AREA SISTEMA01:08:03 00:14:42 3.218 04:34
129123SM4518324FORTUNATI LUCAPODISTICA CLT01:08:05 00:14:44 3.224 04:34
130124SM4519210RANCHELLA FABIOCDP-T&RB GROUP-AREA SISTEMA01:08:10 00:14:49 3.238 04:35
131125SM3518173DI PIETRO GIAN MARCOATLETICA AVIS PERUGIA01:08:18 00:14:57 3.261 04:35
132126SM40247ESPOSITO PAOLOA.S.D. AMATORI VESUVIO01:08:19 00:14:58 3.264 04:35
133127SM4025293GIAMBENEDETTI MICHELEPOD. AVIS DERUTA01:08:26 00:15:05 3.284 04:36
134128SM5510181BARILETTI VINCENZOCDP-T&RB GROUP-AREA SISTEMA01:08:29 00:15:08 3.292 04:36
1357SF403140CIUCHI SILVIAATL. UMBERTIDE01:08:35 00:15:14 3.309 04:36
136129SM4520373PEDINI DAMIANOATL. IL COLLE PERUGIA01:08:47 00:15:26 3.343 04:37
137130SM606237CATANI MARIOG.S. G. PIERALISI01:08:53 00:15:32 3.359 04:37
138131SM6538ANGELINI LUCIANOA.S.D. PODISTICA AVIS FABRIANO01:09:00 00:15:39 3.379 04:38
139132SM607349BURATTINI ROMUALDOA.S.D. PODISTICA AVIS FABRIANO01:09:04 00:15:43 3.390 04:38
140133SM654239FRANCONI SERGIOG.S. G. PIERALISI01:09:04 00:15:43 3.390 04:38
1418SF404117BOSSI GIANNAATL. TAINO01:09:19 00:15:58 3.432 04:39
142134SM655108BOSSI FRANCOATL. SINALUNGA01:09:21 00:16:00 3.437 04:39
143135SM351987GABRIONI LUIGIATL. IL COLLE PERUGIA01:09:23 00:16:02 3.443 04:39
144136SM402678BELLINI ALESSIOATL. IL COLLE PERUGIA01:09:23 00:16:02 3.443 04:39
145137SM502688GAGLIESI GIANNIATL. IL COLLE PERUGIA01:09:23 00:16:02 3.443 04:39
146138SM22270MOSCETTI ALESSIORUNCARD01:09:29 00:16:08 3.459 04:40
147139SM5511327PARTEMI GIANFRANCOPOL. PORTO 8501:09:57 00:16:36 3.535 04:42
148140SM5027110TOMASZUN MAREKATL. SINALUNGA01:10:01 00:16:40 3.546 04:42
149141SM502864FIORI LEONARDOATL. CAPANNE PG01:10:05 00:16:44 3.557 04:42
150142SM5029228LORI GIORGIOG.P. AVIS CASTELRAIMONDO01:10:08 00:16:47 3.565 04:42
151143SM5030362PEVERIERI PAOLOGUBBIO RUNNERS01:10:10 00:16:49 3.571 04:43
152144SM4521154CAPODIMONTI FAUSTOATL. WINNER FOLIGNO01:10:16 00:16:55 3.587 04:43
153145SM5512285COGORNI PROIETTI SAUROPOD. AVIS DERUTA01:10:20 00:16:59 3.597 04:43
154146SM656166PICCOLO COSIMO DAMIANOATL. WINNER FOLIGNO01:10:32 00:17:11 3.629 04:44
155147SM4027294LAMINCIA GIANLUCAPOD. AVIS DERUTA01:10:39 00:17:18 3.648 04:45
156148SM3520153BESTIACCIA FEDERICOATL. WINNER FOLIGNO01:10:53 00:17:32 3.685 04:45
157149SM551328SONAGLIA LEONARDOA.S.D. PODISTICA AVIS FABRIANO01:10:55 00:17:34 3.690 04:46
158150SM503198SALVATORI DARIOATL. IL COLLE PERUGIA01:10:57 00:17:36 3.696 04:46
159151SM3521287COSTARELLI LEONARDOPOD. AVIS DERUTA01:10:58 00:17:37 3.698 04:46
160152SM452281CAPPONI MARCOATL. IL COLLE PERUGIA01:11:01 00:17:40 3.706 04:46
161153SM608348DE FEO PIERPAOLOVOLUMNIA SERICAP PG01:11:11 00:17:50 3.732 04:47
162154SM352247PAPA ROBERTOASPA BASTIA01:11:18 00:17:57 3.751 04:47
163155SM402856FUSCONI GENNAROASSISI RUNNERS01:11:20 00:17:59 3.756 04:47
164156SM4029300TIZZI ALBERTOPOD. AVIS DERUTA01:11:21 00:18:00 3.758 04:47
165157SM4523119CHIAVINI FABIOATL. TAINO01:11:27 00:18:06 3.774 04:48
166158SM657207PEDUCCI MAURIZIOCDP-T&RB GROUP-AREA SISTEMA01:11:36 00:18:15 3.797 04:48
167159SM5032179REALI GABRIELEATLETICA AVIS PERUGIA01:11:47 00:18:26 3.826 04:49
1689SF2146BRUNACCI ROBERTAATL. URBANIA01:12:00 00:18:39 3.859 04:50
169160SM452417ESPOSTO DARCISIOA.S.D. PODISTICA AVIS FABRIANO01:12:07 00:18:46 3.877 04:50
170161SM609352BALESTRA VALERIANOG.S. G. PIERALISI01:12:07 00:18:46 3.877 04:50
17110SF351336ZERINI ELISABETTARUNNERS SANGEMINI TR01:12:10 00:18:49 3.885 04:51
172162SM4525290FRANCESCHINI FABRIZIOPOD. AVIS DERUTA01:12:13 00:18:52 3.892 04:51
173163SM5033377BONANNO EGIDIORUNCARD01:12:15 00:18:54 3.897 04:51
174164SM403041BELLI GIUSEPPEASPA BASTIA01:12:15 00:18:54 3.897 04:51
175165SM403191MONOTTI LUCAATL. IL COLLE PERUGIA01:12:26 00:19:05 3.925 04:52
176166SM4526318MAURO PAOLOPOD. CORCIANO01:12:28 00:19:07 3.930 04:52
17711SF451177MURASECCO PIERPAOLAATLETICA AVIS PERUGIA01:12:32 00:19:11 3.940 04:52
178167SM23296MANGIABENE STEFANOPOD. AVIS DERUTA01:12:34 00:19:13 3.945 04:52
179168SM403252SIENA ANDREAASPA BASTIA01:12:37 00:19:16 3.953 04:52
180169SM24224CECCARELLI CARLOG.P. AVIS CASTELRAIMONDO01:12:40 00:19:19 3.960 04:53
181170SM5034120COLUMBARIA DANIELEATL. TAINO01:12:48 00:19:27 3.980 04:53
182171SM4033344PIANDORO CRISTIANOUISPORT AVIS TODI01:12:50 00:19:29 3.985 04:53
183172SM4527204PASQUINI MARIOCDP-T&RB GROUP-AREA SISTEMA01:12:57 00:19:36 4.003 04:54
18412SF352292GORETTI VALENTINAPOD. AVIS DERUTA01:12:59 00:19:38 4.008 04:54
185173SM3523226GISMONDI MICHELEG.P. AVIS CASTELRAIMONDO01:13:08 00:19:47 4.030 04:55
18613SF405241VICO LAURAG.S. G. PIERALISI01:13:17 00:19:56 4.052 04:55
187174SM6010269MINELLI GIOVANNIINDIVIDUALE01:13:17 00:19:56 4.052 04:55
18814SF50125ROTILI ROBERTAA.S.D. PODISTICA AVIS FABRIANO01:13:17 00:19:56 4.052 04:55
189175SM658221BOVETTI LUCIANOG.P. AVIS CASTELRAIMONDO01:13:32 00:20:11 4.089 04:56
19015SF452178PAPPADA' ROBERTAATLETICA AVIS PERUGIA01:13:41 00:20:20 4.111 04:57
191176SM4034168RAIO ROBERTOATL. WINNER FOLIGNO01:13:43 00:20:22 4.116 04:57
192177SM4528135RONDELLI DANTE RODOLFOATL. TAINO01:13:50 00:20:29 4.133 04:57
193178SM4035123FAZI MAUROATL. TAINO01:13:50 00:20:29 4.133 04:57
194179SM4529167PLACIDI ROBERTOATL. WINNER FOLIGNO01:13:52 00:20:31 4.138 04:57
195180SM4530152AGOSTINELLI SIMONEATL. WINNER FOLIGNO01:13:55 00:20:34 4.145 04:58
19616SF453159DONATI RITAATL. WINNER FOLIGNO01:14:01 00:20:40 4.160 04:58
19717SF32PIERUCCI MARTARUNCARD01:14:03 00:20:42 4.165 04:58
19818SF406205PASSAMONTI ALIDACDP-T&RB GROUP-AREA SISTEMA01:14:03 00:20:42 4.165 04:58
199181SM352446PAPA FRANCESCOASPA BASTIA01:14:24 00:21:03 4.215 05:00
200182SM25332DI BERARDINO MARCORUNNERS PESCARA01:14:26 00:21:05 4.220 05:00
201183SM352545MARZI MARCOASPA BASTIA01:14:27 00:21:06 4.222 05:00
20219SF353101SPITONI BEATRICEATL. IL COLLE PERUGIA01:14:31 00:21:10 4.232 05:00
203184SM601120GUBBIOTTI MARIOA.S.D. PODISTICA AVIS FABRIANO01:14:35 00:21:14 4.241 05:00
20420SF407383NARDONI EMANUELARUNCARD01:14:38 00:21:17 4.249 05:01
20521SF354333DI FLORIO LAURARUNNERS PESCARA01:14:38 00:21:17 4.249 05:01
206185SM453174PAPALE CRESCENZOATL. FABRIANO01:14:43 00:21:22 4.260 05:01
20722SF4319NANDESI TIZIANAPOD. CORCIANO01:14:46 00:21:25 4.268 05:01
208186SM6012100SARGENTI AUGUSTOATL. IL COLLE PERUGIA01:14:49 00:21:28 4.275 05:01
209187SM5514132PIERELLI VINICIOATL. TAINO01:14:49 00:21:28 4.275 05:01
210188SM3526206PATACCA FRANCESCOCDP-T&RB GROUP-AREA SISTEMA01:14:56 00:21:35 4.291 05:02
211189SM5515346BOTTOLONI RAFFAELEVOLUMNIA SERICAP PG01:15:03 00:21:42 4.308 05:02
212190SM3527118BURZACCA GIULIOATL. TAINO01:15:09 00:21:48 4.322 05:03
21323SF454213VELLA DEBORACDP-T&RB GROUP-AREA SISTEMA01:15:14 00:21:53 4.334 05:03
214191SM4532201MENCONI ANTONELLOCDP-T&RB GROUP-AREA SISTEMA01:15:20 00:21:59 4.348 05:03
215192SM659141GIOVANNONI FRANCOATL. UMBERTIDE01:15:21 00:22:00 4.350 05:03
216193SM4533183BOCCHINI MAURIZIOCDP-T&RB GROUP-AREA SISTEMA01:15:26 00:22:05 4.362 05:04
217194SM5516325CARELLI GIUSEPPEPOL. ACLI MACERATA01:15:30 00:22:09 4.371 05:04
218195SM6013158CORICA ALFREDOATL. WINNER FOLIGNO01:15:32 00:22:11 4.375 05:04
21924SF355227GRELLONI PATRIZIAG.P. AVIS CASTELRAIMONDO01:15:34 00:22:13 4.380 05:04
220196SM5035232SANTONICI ALESSANDROG.P. AVIS CASTELRAIMONDO01:15:34 00:22:13 4.380 05:04
221197SM6014326GIACOMINI LUCIANOPOL. MONTECCHIO 200001:15:35 00:22:14 4.382 05:04
222198SM5517217ROMITI CLAUDIODREAM RUNNERS PG01:15:53 00:22:32 4.424 05:06
223199SM5036194FIORDI FABIOCDP-T&RB GROUP-AREA SISTEMA01:15:54 00:22:33 4.426 05:06
224200SM5037240LATINI ROBERTOG.S. G. PIERALISI01:15:57 00:22:36 4.433 05:06
225201SM6510160FAGOTTI MARCOATL. WINNER FOLIGNO01:15:58 00:22:37 4.436 05:06
22625SF455379FRATINI LUCIA SIMONAATL. CAPANNE PG01:16:03 00:22:42 4.447 05:06
227202SM6015378CLERI ANGELOA.S.P.A. BASTIA U. PG01:16:12 00:22:51 4.468 05:07
22826SF456209PROTANI FRANCESCACDP-T&RB GROUP-AREA SISTEMA01:16:16 00:22:55 4.477 05:07
229203SM6511106MASSACCI CARLOATL. SENIGALLIA01:16:20 00:22:59 4.486 05:07
230204SM503882CARDAIOLI DANILOATL. IL COLLE PERUGIA01:16:21 00:23:00 4.488 05:07
231205SM5039298REGNI MIRCOPOD. AVIS DERUTA01:16:32 00:23:11 4.513 05:08
232206SM4534376CELLINI MATTEODREAM RUNNERS PG01:16:47 00:23:26 4.547 05:09
233207SM26170TOSI ANDREAATL. WINNER FOLIGNO01:16:52 00:23:31 4.558 05:10
234208SM504049ROSSI PAOLOASPA BASTIA01:17:06 00:23:45 4.589 05:11
235209SM5041371CICCARELLI ROBERTOATLETICA TAINO01:17:11 00:23:50 4.600 05:11
236210SM551895PASQUALINI FABRIZIOATL. IL COLLE PERUGIA01:17:13 00:23:52 4.605 05:11
23727SF457193FALCHETTI ANNA MARIACDP-T&RB GROUP-AREA SISTEMA01:17:19 00:23:58 4.618 05:11
23828SF458189CRUCIANI ANNA RITACDP-T&RB GROUP-AREA SISTEMA01:17:22 00:24:01 4.625 05:12
239211SM4036291GASBARRO MASSIMOPOD. AVIS DERUTA01:17:26 00:24:05 4.634 05:12
24029SF563PANCRAZI LUCIAATL. AVIS SANSEPOLCRO01:18:06 00:24:45 4.721 05:15
24130SF356316COZZARI MARIANNAPOD. CORCIANO01:18:19 00:24:58 4.749 05:15
24231SF357295LUCARONI SIMONAPOD. AVIS DERUTA01:18:33 00:25:12 4.780 05:16
24332SF459297PELLI ALESSANDRAPOD. AVIS DERUTA01:18:33 00:25:12 4.780 05:16
244212SM2711BERIONNI SAVERIOA.S.D. PODISTICA AVIS FABRIANO01:18:34 00:25:13 4.782 05:16
245213SM6512198LIBERTI RENZOCDP-T&RB GROUP-AREA SISTEMA01:18:36 00:25:15 4.786 05:17
246214SM551972LIPPERA PAOLOATL. FABRIANO01:19:14 00:25:53 4.867 05:19
247215SM6016195GALEAZZI GIULIANOCDP-T&RB GROUP-AREA SISTEMA01:19:17 00:25:56 4.873 05:19
248216SM4535222CAMONI MASSIMOG.P. AVIS CASTELRAIMONDO01:19:20 00:25:59 4.880 05:20
249217SM4037169SANTINI CRISTIANATL. WINNER FOLIGNO01:19:23 00:26:02 4.886 05:20
250218SM552050SCARPELLONI MAUROASPA BASTIA01:19:25 00:26:04 4.890 05:20
251219SM4038328CALZUOLA LUCARUNCARD01:19:35 00:26:14 4.911 05:21
252220SM6513187CIRIMBILLI ALBERTOCDP-T&RB GROUP-AREA SISTEMA01:20:22 00:27:01 5.008 05:24
253221SM453635GRILLO GIACOMOAMATORI POD. TERNI01:20:24 00:27:03 5.012 05:24
254222SM5042380SUVIERI FABIOATL. CAPANNE PG01:20:30 00:27:09 5.025 05:24
255223SM5043271TRAVERSINI ADOLFOINDIVIDUALE01:20:41 00:27:20 5.047 05:25
25633SF6138ZENI REICAATL. TAINO01:20:52 00:27:31 5.070 05:26
257224SM4537372ROCCHI ANDREALA CHIANINA RUNNING01:21:30 00:28:09 5.146 05:28
258225SM4538223CARNEVALI CRISTIANOG.P. AVIS CASTELRAIMONDO01:21:35 00:28:14 5.156 05:29
25934SF408225CENSI RACHELAG.P. AVIS CASTELRAIMONDO01:21:37 00:28:16 5.160 05:29
26035SF551366ANGELONI ANNARITAA.P. PONTE FELCINO PG01:22:02 00:28:41 5.209 05:30
26136SF409283BOTTIGLIO LORENAPOD. AVIS DERUTA01:22:12 00:28:51 5.229 05:31
26237SF7200MARAZITI LAURACDP-T&RB GROUP-AREA SISTEMA01:22:15 00:28:54 5.235 05:31
26338SF358314TROVATO BARBARAPOD. CARSULAE TR01:22:31 00:29:10 5.266 05:32
264226SM5521353FIATTI SERGIOG.S. G. PIERALISI01:22:39 00:29:18 5.282 05:33
26539SF4010202MICHELI NATASCIACDP-T&RB GROUP-AREA SISTEMA01:23:44 00:30:23 5.406 05:37
266227SM5044347BRACARDI PAOLOVOLUMNIA SERICAP PG01:23:56 00:30:35 5.429 05:38
267228SM6514280PECORARI ANTONIOOLYMPIC RUNNERS LAMA01:24:04 00:30:43 5.444 05:39
268229SM651594ORTICA ADRIANOATL. IL COLLE PERUGIA01:24:07 00:30:46 5.449 05:39
26940SF4011375DASCALU MIRELA LAURAATL. UMBERTIDE01:25:07 00:31:46 5.560 05:43
27041SF651220BANCORA GABRIELLAG.P. AVIS CASTELRAIMONDO01:25:08 00:31:47 5.562 05:43
27142SF359134RAGGI SOFIAATL. TAINO01:25:53 00:32:32 5.644 05:46
272230SM552262CASTIGLIEGO MICHELEATL. AVIS SANSEPOLCRO01:25:55 00:32:34 5.647 05:46
273231SM4039238DELLAVEDOVA ANDREAG.S. G. PIERALISI01:26:06 00:32:45 5.667 05:47
27443SF8151ZAZZERONI VALENTINAATL. URBANIA01:26:12 00:32:51 5.678 05:47
275232SM6516121COSIMI ANGELOATL. TAINO01:26:26 00:33:05 5.703 05:48
276233SM552339ANDRICCIOLA GIOVANNIASPA BASTIA01:27:14 00:33:53 5.787 05:51
277234SM352896PRINCIPALE CRISTIANATL. IL COLLE PERUGIA01:29:04 00:35:43 5.975 05:59
278235SM352977BALDASSARRI ALESSANDROATL. IL COLLE PERUGIA01:29:04 00:35:43 5.975 05:59
279236SM353097SACCOCCINI MARCOATL. IL COLLE PERUGIA01:29:04 00:35:43 5.975 05:59
28044SF351085ENRIQUEZ IRENEATL. IL COLLE PERUGIA01:29:04 00:35:43 5.975 05:59
281237SM552410BERIONNI ARRIGOA.S.D. PODISTICA AVIS FABRIANO01:30:03 00:36:42 6.072 06:03
282238SM6017157COLONNA MAUROATL. WINNER FOLIGNO01:31:40 00:38:19 6.228 06:09
28345SF552115ANASTASI LIDIA BEATRICEATL. TAINO01:33:28 00:40:07 6.395 06:16
28446SF451053SPELLI FEDERICAASPA BASTIA01:36:16 00:42:55 6.642 06:28
28547SF50254VAGNARELLI REMAASPA BASTIA01:36:16 00:42:55 6.642 06:28
28648SF401286GABRIONI FEDERICAATL. IL COLLE PERUGIA01:37:33 00:44:12 6.751 06:33
287239SM6018381MANTOVANI NAZZARENOA.S.P.A. BASTIA U. PG01:41:19 00:47:58 7.054 06:48
288240SM6517309ISOLA ANTONIOPOD. CARSULAE TR01:41:20 00:47:59 7.055 06:48
289241SM651851SERLUPINI ANTONIOASPA BASTIA01:43:57 00:50:36 7.252 06:59
290242SM6519338ZATTINI MAUROSTELLA ROSSA G.S.D.01:46:38 00:53:17 7.445 07:09
291243SM6520188COCHETTA PAOLOCDP-T&RB GROUP-AREA SISTEMA01:46:38 00:53:17 7.445 07:09
Righe per pagina::     TUTTE    |   30   |   50   |   100